Flag for India Weather past 2 weeks in Wardha, Maharashtra, India

Now
50 °F

Haze.


Feels Like: 50 °F
Forecast: 58 / 86 °F
Wind: No wind

Location: Nagpur Sonegaon

Current Time: Feb 1, 2015 at 6:52:04 AM

Latest Report: Feb 1, 2015 at 5:40 AM


Visibility: 2 mi

Pressure: 30.04 "Hg

Humidity: 67%

Dew point: 39 °F

Location of WardhaLocation

Historic Weather in Wardha — Graph

°F

Wardha temperature yesterday

Maximum temperature yesterday: 81 °F (at 3:40 PM)
Minimum temperature yesterday: 48 °F (at 6:40 AM)
Average temperature yesterday: 64 °F

Past Weeks' High & Low Weather Summary

 TemperatureHumidityPressure
High86 °F (Jan 25, 2:40 PM)88% (Jan 25, 7:40 AM)30.18 "Hg (Jan 25, 7:40 AM)
Low48 °F (Jan 20, 5:40 AM)21% (Jan 20, 2:40 PM)29.89 "Hg (Jan 28, 3:40 PM)
Average69 °F54%30.04 "Hg
* Reported Jan 17 5:40 AM — Feb 1 3:40 AM, Wardha, Weather by CustomWeather, © 2014

Note: Actual official high and low records may vary slightly from our data, if they occured in-between our weather recording intervals... More about our weather records

Advertising

Wardha weather history for previous 24 hours

 ConditionsComfort  
Time TempWeatherWind HumidityBarometerVisibility
3:40 AM
Feb 1
55 °FHaze.3 mph51%30.04 "Hg2 mi
12:40 AM55 °FHaze.No wind55%30.07 "Hg2 mi
11:40 PM
Jan 31
61 °FHaze.2 mph55%30.07 "Hg2 mi
10:40 PM59 °FHaze.No wind55%30.07 "Hg2 mi
9:40 PM59 °FHaze.No wind59%30.07 "Hg2 mi
8:40 PM63 °FHaze.No wind39%30.04 "Hg2 mi
7:40 PM66 °FHaze.3 mph56%30.04 "Hg2 mi
5:40 PM77 °FHaze.5 mph61%30.01 "Hg2 mi
4:40 PM79 °FHaze.2 mph24%29.98 "Hg3 mi
3:40 PM81 °FHaze.5 mph23%29.98 "Hg3 mi
1:40 PM77 °FHaze.2 mph28%30.04 "Hg3 mi
12:40 PM75 °FHaze.5 mph27%30.09 "Hg3 mi
11:40 AM72 °FHaze.5 mph33%30.12 "Hg3 mi
10:40 AM70 °FHaze.7 mph50%30.15 "Hg3 mi
9:40 AM64 °FHaze.8 mph60%30.15 "Hg3 mi
7:40 AM48 °FHaze.No wind58%30.12 "Hg2 mi
6:40 AM48 °FHaze.No wind87%30.09 "Hg2 mi
Weather by CustomWeather, © 2014

See weather overviewHow to use our weather pages